Location: Zagreb
(45.8000°N, 16.0000°E)
Time: 10:13:16
(UTC+01:00)

Courier 1B Rocket - All Passes

Search period start: 23 January 2020 00:00
Search period end: 02 February 2020 00:00
Orbit: 920 x 1202 km, 28.2° (Epoch: 22 January)

Date Brightness Start Highest point End Pass type
(mag) Time Alt. Az. Time Alt. Az. Time Alt. Az.
23 Jan - 12:07:25 10° S 12:09:52 12° SSE 12:12:15 10° SE daylight
23 Jan - 13:58:13 10° SW 14:02:06 16° S 14:05:52 10° SE daylight
23 Jan - 15:51:43 10° SW 15:54:17 13° SSW 15:56:49 10° S daylight
24 Jan - 12:57:29 10° SSW 13:01:25 16° S 13:05:13 10° SE daylight
24 Jan - 14:50:11 10° SW 14:53:39 15° S 14:57:03 10° SSE daylight
25 Jan - 11:56:58 10° SSW 12:00:42 15° S 12:04:19 10° SE daylight
25 Jan - 13:48:58 10° SW 13:53:00 16° S 13:56:53 10° SSE daylight
25 Jan - 15:44:20 10° SSW 15:45:08 10° SSW 15:45:55 10° SSW daylight
26 Jan - 10:56:49 10° SSW 10:59:59 13° SSE 11:03:03 10° SE daylight
26 Jan - 12:47:58 10° SW 12:52:17 17° S 12:56:27 10° SE daylight
26 Jan - 14:41:33 10° SW 14:44:31 13° SSW 14:47:24 10° SSE daylight
27 Jan - 09:57:27 10° S 09:59:14 11° SSE 10:01:00 10° SSE daylight
27 Jan - 11:47:08 10° SSW 11:51:34 17° S 11:55:48 10° SE daylight
27 Jan - 13:39:57 10° SW 13:43:52 16° S 13:47:37 10° SSE daylight
28 Jan - 10:46:32 10° SSW 10:50:47 16° S 10:54:54 10° SE daylight
28 Jan - 12:38:41 10° SW 12:43:09 18° S 12:47:26 10° SE daylight
28 Jan - 14:33:39 10° SW 14:35:19 11° SSW 14:36:58 10° S daylight
29 Jan - 09:46:15 10° SSW 09:50:00 14° SSE 09:53:39 10° SE daylight
29 Jan - 11:37:37 10° SW 11:42:23 18° S 11:46:58 10° SE daylight
29 Jan - 13:31:14 10° SW 13:34:40 14° SSW 13:38:00 10° SSE daylight
30 Jan - 08:46:37 10° S 08:49:13 12° SSE 08:51:48 10° SE daylight
30 Jan - 10:36:45 10° SW 10:41:36 18° S 10:46:15 10° SE daylight
30 Jan - 12:29:37 10° SW 12:33:58 17° S 12:38:09 10° SSE daylight
31 Jan - 09:36:06 10° SSW 09:40:46 17° S 09:45:18 10° SE daylight
31 Jan - 11:28:19 10° SW 11:33:12 19° S 11:37:53 10° SE daylight
31 Jan - 13:23:04 10° SW 13:25:26 12° SSW 13:27:47 10° S daylight
01 Feb - 08:35:48 10° SSW 08:39:57 15° SSE 08:44:01 10° SE daylight
01 Feb - 10:27:15 10° SW 10:32:23 20° S 10:37:21 10° SE daylight
01 Feb - 12:20:51 10° SW 12:24:45 15° SSW 12:28:32 10° SSE daylight
